Year,Month,Day,Hour,Minute,Value (Times are PST for temperature in C)
2015,08,18,00,00,13.40
2015,08,18,00,01,13.40
2015,08,18,00,02,13.40
2015,08,18,00,03,13.40
2015,08,18,00,04,13.40
2015,08,18,00,05,13.40
2015,08,18,00,06,13.40
2015,08,18,00,07,13.30
2015,08,18,00,08,13.30
2015,08,18,00,09,13.30
2015,08,18,00,10,13.30
2015,08,18,00,11,13.20
2015,08,18,00,12,13.20
2015,08,18,00,13,13.10
2015,08,18,00,14,13.10
2015,08,18,00,15,13.10
2015,08,18,00,16,13.10
2015,08,18,00,17,13.10
2015,08,18,00,18,13.10
2015,08,18,00,19,13.10
2015,08,18,00,20,13.10
2015,08,18,00,21,13.10
2015,08,18,00,22,13.10
2015,08,18,00,23,13.20
2015,08,18,00,24,13.20
2015,08,18,00,25,13.20
2015,08,18,00,26,13.20
2015,08,18,00,27,13.20
2015,08,18,00,28,13.20
2015,08,18,00,29,13.20
2015,08,18,00,30,13.20
2015,08,18,00,31,13.20
2015,08,18,00,32,13.20
2015,08,18,00,33,13.20
2015,08,18,00,34,13.20
2015,08,18,00,35,13.20
2015,08,18,00,36,13.20
2015,08,18,00,37,13.20
2015,08,18,00,38,13.20
2015,08,18,00,39,13.20
2015,08,18,00,40,13.20
2015,08,18,00,41,13.20
2015,08,18,00,42,13.30
2015,08,18,00,43,13.30
2015,08,18,00,44,13.40
2015,08,18,00,45,13.40
2015,08,18,00,46,13.50
2015,08,18,00,47,13.50
2015,08,18,00,48,13.50
2015,08,18,00,49,13.50
2015,08,18,00,50,13.50
2015,08,18,00,51,13.50
2015,08,18,00,52,13.50
2015,08,18,00,53,13.50
2015,08,18,00,54,13.50
2015,08,18,00,55,13.50
2015,08,18,00,56,13.40
2015,08,18,00,57,13.40
2015,08,18,00,58,13.40
2015,08,18,00,59,13.40
2015,08,18,01,00,13.40
2015,08,18,01,01,13.30
2015,08,18,01,02,13.30
2015,08,18,01,03,13.20
2015,08,18,01,04,13.20
2015,08,18,01,05,13.20
2015,08,18,01,06,13.20
2015,08,18,01,07,13.20
2015,08,18,01,08,13.20
2015,08,18,01,09,13.20
2015,08,18,01,10,13.30
2015,08,18,01,11,13.40
2015,08,18,01,12,13.40
2015,08,18,01,13,13.50
2015,08,18,01,14,13.50
2015,08,18,01,15,13.50
2015,08,18,01,16,13.60
2015,08,18,01,17,13.60
2015,08,18,01,18,13.70
2015,08,18,01,19,13.70
2015,08,18,01,20,13.80
2015,08,18,01,21,13.80
2015,08,18,01,22,13.90
2015,08,18,01,23,13.90
2015,08,18,01,24,13.90
2015,08,18,01,25,13.90
2015,08,18,01,26,13.90
2015,08,18,01,27,13.90
2015,08,18,01,28,13.90
2015,08,18,01,29,13.90
2015,08,18,01,30,13.90
2015,08,18,01,31,13.80
2015,08,18,01,32,13.80
2015,08,18,01,33,13.70
2015,08,18,01,34,13.60
2015,08,18,01,35,13.60
2015,08,18,01,36,13.50
2015,08,18,01,37,13.50
2015,08,18,01,38,13.50
2015,08,18,01,39,13.40
2015,08,18,01,40,13.40
2015,08,18,01,41,13.40
2015,08,18,01,42,13.40
2015,08,18,01,43,13.30
2015,08,18,01,44,13.30
2015,08,18,01,45,13.30
2015,08,18,01,46,13.30
2015,08,18,01,47,13.30
2015,08,18,01,48,13.20
2015,08,18,01,49,13.20
2015,08,18,01,50,13.20
2015,08,18,01,51,13.20
2015,08,18,01,52,13.20
2015,08,18,01,53,13.20
2015,08,18,01,54,13.20
2015,08,18,01,55,13.20
2015,08,18,01,56,13.20
2015,08,18,01,57,13.20
2015,08,18,01,58,13.20
2015,08,18,01,59,13.10
2015,08,18,02,00,13.10
2015,08,18,02,01,13.10
2015,08,18,02,02,13.20
2015,08,18,02,03,13.20
2015,08,18,02,04,13.20
2015,08,18,02,05,13.20
2015,08,18,02,06,13.20
2015,08,18,02,07,13.20
2015,08,18,02,08,13.20
2015,08,18,02,09,13.20
2015,08,18,02,10,13.10
2015,08,18,02,11,13.10
2015,08,18,02,12,13.10
2015,08,18,02,13,13.10
2015,08,18,02,14,13.10
2015,08,18,02,15,13.10
2015,08,18,02,16,13.10
2015,08,18,02,17,13.10
2015,08,18,02,18,13.10
2015,08,18,02,19,13.10
2015,08,18,02,20,13.10
2015,08,18,02,21,13.10
2015,08,18,02,22,13.00
2015,08,18,02,23,13.00
2015,08,18,02,24,12.90
2015,08,18,02,25,12.90
2015,08,18,02,26,12.90
2015,08,18,02,27,12.80
2015,08,18,02,28,12.80
2015,08,18,02,29,12.70
2015,08,18,02,30,12.70
2015,08,18,02,31,12.70
2015,08,18,02,32,12.60
2015,08,18,02,33,12.60
2015,08,18,02,34,12.70
2015,08,18,02,35,12.70
2015,08,18,02,36,12.70
2015,08,18,02,37,12.80
2015,08,18,02,38,12.90
2015,08,18,02,39,12.90
2015,08,18,02,40,13.00
2015,08,18,02,41,13.10
2015,08,18,02,42,13.10
2015,08,18,02,43,13.10
2015,08,18,02,44,13.00
2015,08,18,02,45,13.00
2015,08,18,02,46,13.00
2015,08,18,02,47,13.00
2015,08,18,02,48,13.00
2015,08,18,02,49,13.00
2015,08,18,02,50,12.90
2015,08,18,02,51,12.90
2015,08,18,02,52,12.80
2015,08,18,02,53,12.80
2015,08,18,02,54,12.70
2015,08,18,02,55,12.70
2015,08,18,02,56,12.70
2015,08,18,02,57,12.70
2015,08,18,02,58,12.70
2015,08,18,02,59,12.70
2015,08,18,03,00,12.60
2015,08,18,03,01,12.60
2015,08,18,03,02,12.60
2015,08,18,03,03,12.60
2015,08,18,03,04,12.60
2015,08,18,03,05,12.60
2015,08,18,03,06,12.60
2015,08,18,03,07,12.60
2015,08,18,03,08,12.60
2015,08,18,03,09,12.60
2015,08,18,03,10,12.70
2015,08,18,03,11,12.70
2015,08,18,03,12,12.70
2015,08,18,03,13,12.70
2015,08,18,03,14,12.60
2015,08,18,03,15,12.60
2015,08,18,03,16,12.60
2015,08,18,03,17,12.60
2015,08,18,03,18,12.60
2015,08,18,03,19,12.60
2015,08,18,03,20,12.60
2015,08,18,03,21,12.60
2015,08,18,03,22,12.70
2015,08,18,03,23,12.70
2015,08,18,03,24,12.70
2015,08,18,03,25,12.70
2015,08,18,03,26,12.70
2015,08,18,03,27,12.70
2015,08,18,03,28,12.70
2015,08,18,03,29,12.70
2015,08,18,03,30,12.70
2015,08,18,03,31,12.70
2015,08,18,03,32,12.80
2015,08,18,03,33,12.80
2015,08,18,03,34,12.80
2015,08,18,03,35,12.80
2015,08,18,03,36,12.80
2015,08,18,03,37,12.80
2015,08,18,03,38,12.80
2015,08,18,03,39,12.80
2015,08,18,03,40,12.70
2015,08,18,03,41,12.70
2015,08,18,03,42,12.70
2015,08,18,03,43,12.60
2015,08,18,03,44,12.60
2015,08,18,03,45,12.60
2015,08,18,03,46,12.60
2015,08,18,03,47,12.60
2015,08,18,03,48,12.60
2015,08,18,03,49,12.50
2015,08,18,03,50,12.50
2015,08,18,03,51,12.50
2015,08,18,03,52,12.40
2015,08,18,03,53,12.50
2015,08,18,03,54,12.50
2015,08,18,03,55,12.50
2015,08,18,03,56,12.50
2015,08,18,03,57,12.50
2015,08,18,03,58,12.50
2015,08,18,03,59,12.50
2015,08,18,04,00,12.50
2015,08,18,04,01,12.50
2015,08,18,04,02,12.40
2015,08,18,04,03,12.40
2015,08,18,04,04,12.40
2015,08,18,04,05,12.40
2015,08,18,04,06,12.40
2015,08,18,04,07,12.50
2015,08,18,04,08,12.60
2015,08,18,04,09,12.70
2015,08,18,04,10,12.80
2015,08,18,04,11,12.90
2015,08,18,04,12,12.90
2015,08,18,04,13,13.00
2015,08,18,04,14,13.00
2015,08,18,04,15,13.00
2015,08,18,04,16,13.10
2015,08,18,04,17,13.10
2015,08,18,04,18,13.10
2015,08,18,04,19,13.00
2015,08,18,04,20,13.00
2015,08,18,04,21,13.00
2015,08,18,04,22,13.00
2015,08,18,04,23,12.90
2015,08,18,04,24,12.90
2015,08,18,04,25,12.90
2015,08,18,04,26,12.90
2015,08,18,04,27,12.90
2015,08,18,04,28,12.80
2015,08,18,04,29,12.80
2015,08,18,04,30,12.90
2015,08,18,04,31,12.90
2015,08,18,04,32,12.90
2015,08,18,04,33,12.90
2015,08,18,04,34,12.90
2015,08,18,04,35,12.90
2015,08,18,04,36,12.80
2015,08,18,04,37,12.80
2015,08,18,04,38,12.70
2015,08,18,04,39,12.70
2015,08,18,04,40,12.70
2015,08,18,04,41,12.60
2015,08,18,04,42,12.60
2015,08,18,04,43,12.60
2015,08,18,04,44,12.60
2015,08,18,04,45,12.60
2015,08,18,04,46,12.70
2015,08,18,04,47,12.70
2015,08,18,04,48,12.70
2015,08,18,04,49,12.70
2015,08,18,04,50,12.60
2015,08,18,04,51,12.60
2015,08,18,04,52,12.50
2015,08,18,04,53,12.50
2015,08,18,04,54,12.40
2015,08,18,04,55,12.40
2015,08,18,04,56,12.40
2015,08,18,04,57,12.40
2015,08,18,04,58,12.30
2015,08,18,04,59,12.30
2015,08,18,05,00,12.30
2015,08,18,05,01,12.30
2015,08,18,05,02,12.30
2015,08,18,05,03,12.30
2015,08,18,05,04,12.30
2015,08,18,05,05,12.30
2015,08,18,05,06,12.30
2015,08,18,05,07,12.30
2015,08,18,05,08,12.30
2015,08,18,05,09,12.40
2015,08,18,05,10,12.40
2015,08,18,05,11,12.40
2015,08,18,05,12,12.40
2015,08,18,05,13,12.40
2015,08,18,05,14,12.40
2015,08,18,05,15,12.40
2015,08,18,05,16,12.50
2015,08,18,05,17,12.60
2015,08,18,05,18,12.60
2015,08,18,05,19,12.70
2015,08,18,05,20,12.70
2015,08,18,05,21,12.70
2015,08,18,05,22,12.80
2015,08,18,05,23,12.90
2015,08,18,05,24,12.90
2015,08,18,05,25,13.00
2015,08,18,05,26,13.10
2015,08,18,05,27,13.20
2015,08,18,05,28,13.30
2015,08,18,05,29,13.30
2015,08,18,05,30,13.30
2015,08,18,05,31,13.40
2015,08,18,05,32,13.50
2015,08,18,05,33,13.50
2015,08,18,05,34,13.50
2015,08,18,05,35,13.50
2015,08,18,05,36,13.60
2015,08,18,05,37,13.70
2015,08,18,05,38,13.90
2015,08,18,05,39,14.10
2015,08,18,05,40,14.30
2015,08,18,05,41,14.40
2015,08,18,05,42,14.50
2015,08,18,05,43,14.60
2015,08,18,05,44,14.70
2015,08,18,05,45,14.70
2015,08,18,05,46,14.80
2015,08,18,05,47,14.70
2015,08,18,05,48,14.70
2015,08,18,05,49,14.70
2015,08,18,05,50,14.70
2015,08,18,05,51,14.60
2015,08,18,05,52,14.60
2015,08,18,05,53,14.50
2015,08,18,05,54,14.40
2015,08,18,05,55,14.40
2015,08,18,05,56,14.30
2015,08,18,05,57,14.30
2015,08,18,05,58,14.20
2015,08,18,05,59,14.10
2015,08,18,06,00,14.10
2015,08,18,06,01,14.00
2015,08,18,06,02,13.90
2015,08,18,06,03,13.90
2015,08,18,06,04,13.90
2015,08,18,06,05,13.80
2015,08,18,06,06,13.80
2015,08,18,06,07,13.80
2015,08,18,06,08,13.70
2015,08,18,06,09,13.70
2015,08,18,06,10,13.70
2015,08,18,06,11,13.70
2015,08,18,06,12,13.60
2015,08,18,06,13,13.60
2015,08,18,06,14,13.60
2015,08,18,06,15,13.60
2015,08,18,06,16,13.60
2015,08,18,06,17,13.70
2015,08,18,06,18,13.70
2015,08,18,06,19,13.70
2015,08,18,06,20,13.70
2015,08,18,06,21,13.70
2015,08,18,06,22,13.70
2015,08,18,06,23,13.70
2015,08,18,06,24,13.80
2015,08,18,06,25,13.80
2015,08,18,06,26,13.90
2015,08,18,06,27,14.00
2015,08,18,06,28,14.10
2015,08,18,06,29,14.10
2015,08,18,06,30,14.20
2015,08,18,06,31,14.20
2015,08,18,06,32,14.20
2015,08,18,06,33,14.20
2015,08,18,06,34,14.20
2015,08,18,06,35,14.10
2015,08,18,06,36,14.10
2015,08,18,06,37,14.10
2015,08,18,06,38,14.10
2015,08,18,06,39,14.10
2015,08,18,06,40,14.10
2015,08,18,06,41,14.20
2015,08,18,06,42,14.20
2015,08,18,06,43,14.30
2015,08,18,06,44,14.40
2015,08,18,06,45,14.50
2015,08,18,06,46,14.50
2015,08,18,06,47,14.60
2015,08,18,06,48,14.60
2015,08,18,06,49,14.70
2015,08,18,06,50,14.70
2015,08,18,06,51,14.80
2015,08,18,06,52,14.90
2015,08,18,06,53,15.00
2015,08,18,06,54,15.00
2015,08,18,06,55,15.10
2015,08,18,06,56,15.20
2015,08,18,06,57,15.30
2015,08,18,06,58,15.30
2015,08,18,06,59,15.40
2015,08,18,07,00,15.50
2015,08,18,07,01,15.60
2015,08,18,07,02,15.60
2015,08,18,07,03,15.70
2015,08,18,07,04,15.80
2015,08,18,07,05,15.90
2015,08,18,07,06,16.00
2015,08,18,07,07,16.10
2015,08,18,07,08,16.10
2015,08,18,07,09,16.20
2015,08,18,07,10,16.30
2015,08,18,07,11,16.40
2015,08,18,07,12,16.50
2015,08,18,07,13,16.60
2015,08,18,07,14,16.70
2015,08,18,07,15,16.80
2015,08,18,07,16,16.90
2015,08,18,07,17,17.00
2015,08,18,07,18,17.00
2015,08,18,07,19,17.10
2015,08,18,07,20,17.20
2015,08,18,07,21,17.30
2015,08,18,07,22,17.40
2015,08,18,07,23,17.50
2015,08,18,07,24,17.60
2015,08,18,07,25,17.70
2015,08,18,07,26,17.80
2015,08,18,07,27,17.80
2015,08,18,07,28,17.90
2015,08,18,07,29,18.00
2015,08,18,07,30,18.00
2015,08,18,07,31,18.10
2015,08,18,07,32,18.10
2015,08,18,07,33,18.20
2015,08,18,07,34,18.20
2015,08,18,07,35,18.20
2015,08,18,07,36,18.30
2015,08,18,07,37,18.30
2015,08,18,07,38,18.30
2015,08,18,07,39,18.40
2015,08,18,07,40,18.40
2015,08,18,07,41,18.50
2015,08,18,07,42,18.60
2015,08,18,07,43,18.70
2015,08,18,07,44,18.80
2015,08,18,07,45,18.90
2015,08,18,07,46,18.90
2015,08,18,07,47,18.90
2015,08,18,07,48,18.90
2015,08,18,07,49,18.90
2015,08,18,07,50,18.90
2015,08,18,07,51,18.90
2015,08,18,07,52,18.90
2015,08,18,07,53,18.90
2015,08,18,07,54,18.90
2015,08,18,07,55,18.90
2015,08,18,07,56,18.90
2015,08,18,07,57,19.00
2015,08,18,07,58,19.00
2015,08,18,07,59,19.10
2015,08,18,08,00,19.10
2015,08,18,08,01,19.20
2015,08,18,08,02,19.20
2015,08,18,08,03,19.20
2015,08,18,08,04,19.30
2015,08,18,08,05,19.30
2015,08,18,08,06,19.40
2015,08,18,08,07,19.40
2015,08,18,08,08,19.50
2015,08,18,08,09,19.50
2015,08,18,08,10,19.60
2015,08,18,08,11,19.60
2015,08,18,08,12,19.70
2015,08,18,08,13,19.70
2015,08,18,08,14,19.80
2015,08,18,08,15,19.80
2015,08,18,08,16,19.80
2015,08,18,08,17,19.90
2015,08,18,08,18,19.90
2015,08,18,08,19,20.00
2015,08,18,08,20,20.10
2015,08,18,08,21,20.20
2015,08,18,08,22,20.20
2015,08,18,08,23,20.30
2015,08,18,08,24,20.30
2015,08,18,08,25,20.30
2015,08,18,08,26,20.40
2015,08,18,08,27,20.40
2015,08,18,08,28,20.40
2015,08,18,08,29,20.40
2015,08,18,08,30,20.40
2015,08,18,08,31,20.40
2015,08,18,08,32,20.50
2015,08,18,08,33,20.50
2015,08,18,08,34,20.50
2015,08,18,08,35,20.50
2015,08,18,08,36,20.50
2015,08,18,08,37,20.50
2015,08,18,08,38,20.60
2015,08,18,08,39,20.60
2015,08,18,08,40,20.60
2015,08,18,08,41,20.70
2015,08,18,08,42,20.80
2015,08,18,08,43,20.80
2015,08,18,08,44,20.80
2015,08,18,08,45,20.80
2015,08,18,08,46,20.80
2015,08,18,08,47,20.80
2015,08,18,08,48,20.90
2015,08,18,08,49,20.90
2015,08,18,08,50,20.80
2015,08,18,08,51,20.80
2015,08,18,08,52,20.80
2015,08,18,08,53,20.80
2015,08,18,08,54,20.80
2015,08,18,08,55,20.80
2015,08,18,08,56,20.80
2015,08,18,08,57,20.90
2015,08,18,08,58,20.90
2015,08,18,08,59,21.00
2015,08,18,09,00,21.10
2015,08,18,09,01,21.10
2015,08,18,09,02,21.10
2015,08,18,09,03,21.10
2015,08,18,09,04,21.10
2015,08,18,09,05,21.20
2015,08,18,09,06,21.30
2015,08,18,09,07,21.40
2015,08,18,09,08,21.40
2015,08,18,09,09,21.50
2015,08,18,09,10,21.40
2015,08,18,09,11,21.40
2015,08,18,09,12,21.40
2015,08,18,09,13,21.40
2015,08,18,09,14,21.40
2015,08,18,09,15,21.40
2015,08,18,09,16,21.50
2015,08,18,09,17,21.50
2015,08,18,09,18,21.50
2015,08,18,09,19,21.60
2015,08,18,09,20,21.70
2015,08,18,09,21,21.70
2015,08,18,09,22,21.80
2015,08,18,09,23,21.80
2015,08,18,09,24,21.90
2015,08,18,09,25,21.90
2015,08,18,09,26,21.90
2015,08,18,09,27,21.90
2015,08,18,09,28,21.90
2015,08,18,09,29,21.90
2015,08,18,09,30,22.00
2015,08,18,09,31,22.10
2015,08,18,09,32,22.20
2015,08,18,09,33,22.20
2015,08,18,09,34,22.20
2015,08,18,09,35,22.30
2015,08,18,09,36,22.40
2015,08,18,09,37,22.50
2015,08,18,09,38,22.50
2015,08,18,09,39,22.60
2015,08,18,09,40,22.60
2015,08,18,09,41,22.50
2015,08,18,09,42,22.60
2015,08,18,09,43,22.60
2015,08,18,09,44,22.60
2015,08,18,09,45,22.70
2015,08,18,09,46,22.80
2015,08,18,09,47,22.80
2015,08,18,09,48,22.80
2015,08,18,09,49,22.80
2015,08,18,09,50,22.80
2015,08,18,09,51,22.90
2015,08,18,09,52,23.00
2015,08,18,09,53,23.10
2015,08,18,09,54,23.20
2015,08,18,09,55,23.20
2015,08,18,09,56,23.20
2015,08,18,09,57,23.30
2015,08,18,09,58,23.30
2015,08,18,09,59,23.30
2015,08,18,10,00,23.30
2015,08,18,10,01,23.30
2015,08,18,10,02,23.20
2015,08,18,10,03,23.10
2015,08,18,10,04,23.00
2015,08,18,10,05,23.00
2015,08,18,10,06,23.00
2015,08,18,10,07,23.00
2015,08,18,10,08,22.90
2015,08,18,10,09,22.90
2015,08,18,10,10,23.00
2015,08,18,10,11,23.10
2015,08,18,10,12,23.10
2015,08,18,10,13,23.20
2015,08,18,10,14,23.30
2015,08,18,10,15,23.40
2015,08,18,10,16,23.50
2015,08,18,10,17,23.50
2015,08,18,10,18,23.60
2015,08,18,10,19,23.60
2015,08,18,10,20,23.70
2015,08,18,10,21,23.80
2015,08,18,10,22,23.80
2015,08,18,10,23,23.80
2015,08,18,10,24,23.80
2015,08,18,10,25,23.90
2015,08,18,10,26,23.90
2015,08,18,10,27,24.00
2015,08,18,10,28,24.10
2015,08,18,10,29,24.00
2015,08,18,10,30,23.90
2015,08,18,10,31,23.90
2015,08,18,10,32,23.80
2015,08,18,10,33,23.80
2015,08,18,10,34,23.90
2015,08,18,10,35,24.00
2015,08,18,10,36,24.10
2015,08,18,10,37,24.10
2015,08,18,10,38,24.20
2015,08,18,10,39,24.30
2015,08,18,10,40,24.30
2015,08,18,10,41,24.40
2015,08,18,10,42,24.40
2015,08,18,10,43,24.40
2015,08,18,10,44,24.30
2015,08,18,10,45,24.30
2015,08,18,10,46,24.20
2015,08,18,10,47,24.20
2015,08,18,10,48,24.30
2015,08,18,10,49,24.30
2015,08,18,10,50,24.30
2015,08,18,10,51,24.30
2015,08,18,10,52,24.30
2015,08,18,10,53,24.30
2015,08,18,10,54,24.20
2015,08,18,10,55,24.30
2015,08,18,10,56,24.30
2015,08,18,10,57,24.40
2015,08,18,10,58,24.50
2015,08,18,10,59,24.70
2015,08,18,11,00,24.90
2015,08,18,11,01,25.10
2015,08,18,11,02,25.20
2015,08,18,11,03,25.30
2015,08,18,11,04,25.40
2015,08,18,11,05,25.40
2015,08,18,11,06,25.40
2015,08,18,11,07,25.50
2015,08,18,11,08,25.40
2015,08,18,11,09,25.40
2015,08,18,11,10,25.40
2015,08,18,11,11,25.50
2015,08,18,11,12,25.60
2015,08,18,11,13,25.70
2015,08,18,11,14,25.80
2015,08,18,11,15,25.90
2015,08,18,11,16,25.80
2015,08,18,11,17,25.70
2015,08,18,11,18,25.70
2015,08,18,11,19,25.60
2015,08,18,11,20,25.60
2015,08,18,11,21,25.50
2015,08,18,11,22,25.40
2015,08,18,11,23,25.30
2015,08,18,11,24,25.40
2015,08,18,11,25,25.40
2015,08,18,11,26,25.30
2015,08,18,11,27,25.30
2015,08,18,11,28,25.20
2015,08,18,11,29,25.30
2015,08,18,11,30,25.30
2015,08,18,11,31,25.30
2015,08,18,11,32,25.30
2015,08,18,11,33,25.30
2015,08,18,11,34,25.40
2015,08,18,11,35,25.40
2015,08,18,11,36,25.30
2015,08,18,11,37,25.20
2015,08,18,11,38,25.20
2015,08,18,11,39,25.30
2015,08,18,11,40,25.30
2015,08,18,11,41,25.30
2015,08,18,11,42,25.30
2015,08,18,11,43,25.30
2015,08,18,11,44,25.20
2015,08,18,11,45,25.20
2015,08,18,11,46,25.20
2015,08,18,11,47,25.20
2015,08,18,11,48,25.30
2015,08,18,11,49,25.40
2015,08,18,11,50,25.60
2015,08,18,11,51,25.80
2015,08,18,11,52,25.90
2015,08,18,11,53,25.90
2015,08,18,11,54,26.00
2015,08,18,11,55,26.10
2015,08,18,11,56,26.30
2015,08,18,11,57,26.40
2015,08,18,11,58,26.50
2015,08,18,11,59,26.50
2015,08,18,12,00,26.50
2015,08,18,12,01,26.40
2015,08,18,12,02,26.40
2015,08,18,12,03,26.30
2015,08,18,12,04,26.30
2015,08,18,12,05,26.30
2015,08,18,12,06,26.30
2015,08,18,12,07,26.40
2015,08,18,12,08,26.40
2015,08,18,12,09,26.50
2015,08,18,12,10,26.60
2015,08,18,12,11,26.60
2015,08,18,12,12,26.50
2015,08,18,12,13,26.50
2015,08,18,12,14,26.40
2015,08,18,12,15,26.30
2015,08,18,12,16,26.30
2015,08,18,12,17,26.40
2015,08,18,12,18,26.50
2015,08,18,12,19,26.60
2015,08,18,12,20,26.70
2015,08,18,12,21,26.80
2015,08,18,12,22,26.70
2015,08,18,12,23,26.70
2015,08,18,12,24,26.70
2015,08,18,12,25,26.60
2015,08,18,12,26,26.70
2015,08,18,12,27,26.80
2015,08,18,12,28,26.80
2015,08,18,12,29,26.90
2015,08,18,12,30,26.90
2015,08,18,12,31,26.90
2015,08,18,12,32,26.90
2015,08,18,12,33,26.90
2015,08,18,12,34,26.90
2015,08,18,12,35,27.00
2015,08,18,12,36,27.10
2015,08,18,12,37,27.20
2015,08,18,12,38,27.30
2015,08,18,12,39,27.40
2015,08,18,12,40,27.60
2015,08,18,12,41,27.80
2015,08,18,12,42,27.90
2015,08,18,12,43,27.90
2015,08,18,12,44,27.80
2015,08,18,12,45,27.60
2015,08,18,12,46,27.50
2015,08,18,12,47,27.40
2015,08,18,12,48,27.20
2015,08,18,12,49,27.00
2015,08,18,12,50,26.90
2015,08,18,12,51,26.80
2015,08,18,12,52,26.70
2015,08,18,12,53,26.60
2015,08,18,12,54,26.60
2015,08,18,12,55,26.60
2015,08,18,12,56,26.60
2015,08,18,12,57,26.60
2015,08,18,12,58,26.80
2015,08,18,12,59,26.90
2015,08,18,13,00,26.90
2015,08,18,13,01,27.00
2015,08,18,13,02,27.00
2015,08,18,13,03,27.00
2015,08,18,13,04,27.00
2015,08,18,13,05,27.00
2015,08,18,13,06,26.90
2015,08,18,13,07,26.90
2015,08,18,13,08,27.00
2015,08,18,13,09,27.00
2015,08,18,13,10,27.10
2015,08,18,13,11,27.20
2015,08,18,13,12,27.30
2015,08,18,13,13,27.20
2015,08,18,13,14,27.20
2015,08,18,13,15,27.10
2015,08,18,13,16,27.10
2015,08,18,13,17,27.20
2015,08,18,13,18,27.30
2015,08,18,13,19,27.40
2015,08,18,13,20,27.40
2015,08,18,13,21,27.40
2015,08,18,13,22,27.50
2015,08,18,13,23,27.50
2015,08,18,13,24,27.50
2015,08,18,13,25,27.50
2015,08,18,13,26,27.50
2015,08,18,13,27,27.70
2015,08,18,13,28,27.90
2015,08,18,13,29,28.10
2015,08,18,13,30,28.20
2015,08,18,13,31,28.10
2015,08,18,13,32,28.10
2015,08,18,13,33,28.10
2015,08,18,13,34,28.20
2015,08,18,13,35,28.30
2015,08,18,13,36,28.40
2015,08,18,13,37,28.40
2015,08,18,13,38,28.40
2015,08,18,13,39,28.40
2015,08,18,13,40,28.50
2015,08,18,13,41,28.60
2015,08,18,13,42,28.60
2015,08,18,13,43,28.70
2015,08,18,13,44,28.70
2015,08,18,13,45,28.70
2015,08,18,13,46,28.80
2015,08,18,13,47,28.90
2015,08,18,13,48,29.00
2015,08,18,13,49,29.10
2015,08,18,13,50,29.20
2015,08,18,13,51,29.30
2015,08,18,13,52,29.30
2015,08,18,13,53,29.40
2015,08,18,13,54,29.40
2015,08,18,13,55,29.40
2015,08,18,13,56,29.40
2015,08,18,13,57,29.20
2015,08,18,13,58,29.00
2015,08,18,13,59,28.80
2015,08,18,14,00,28.70
2015,08,18,14,01,28.60
2015,08,18,14,02,28.60
2015,08,18,14,03,28.60
2015,08,18,14,04,28.60
2015,08,18,14,05,28.70
2015,08,18,14,06,28.80
2015,08,18,14,07,28.80
2015,08,18,14,08,28.60
2015,08,18,14,09,28.50
2015,08,18,14,10,28.40
2015,08,18,14,11,28.30
2015,08,18,14,12,28.20
2015,08,18,14,13,28.20
2015,08,18,14,14,28.20
2015,08,18,14,15,28.20
2015,08,18,14,16,28.10
2015,08,18,14,17,28.10
2015,08,18,14,18,28.10
2015,08,18,14,19,28.10
2015,08,18,14,20,28.10
2015,08,18,14,21,28.00
2015,08,18,14,22,27.90
2015,08,18,14,23,28.00
2015,08,18,14,24,28.00
2015,08,18,14,25,28.20
2015,08,18,14,26,28.30
2015,08,18,14,27,28.50
2015,08,18,14,28,28.70
2015,08,18,14,29,28.70
2015,08,18,14,30,28.70
2015,08,18,14,31,28.90
2015,08,18,14,32,29.00
2015,08,18,14,33,29.00
2015,08,18,14,34,29.10
2015,08,18,14,35,29.20
2015,08,18,14,36,29.20
2015,08,18,14,37,29.30
2015,08,18,14,38,29.30
2015,08,18,14,39,29.40
2015,08,18,14,40,29.40
2015,08,18,14,41,29.40
2015,08,18,14,42,29.40
2015,08,18,14,43,29.40
2015,08,18,14,44,29.40
2015,08,18,14,45,29.40
2015,08,18,14,46,29.40
2015,08,18,14,47,29.30
2015,08,18,14,48,29.30
2015,08,18,14,49,29.30
2015,08,18,14,50,29.40
2015,08,18,14,51,29.40
2015,08,18,14,52,29.40
2015,08,18,14,53,29.40
2015,08,18,14,54,29.50
2015,08,18,14,55,29.50
2015,08,18,14,56,29.40
2015,08,18,14,57,29.30
2015,08,18,14,58,29.20
2015,08,18,14,59,29.10
2015,08,18,15,00,29.00
2015,08,18,15,01,28.90
2015,08,18,15,02,28.90
2015,08,18,15,03,28.80
2015,08,18,15,04,28.80
2015,08,18,15,05,28.90
2015,08,18,15,06,29.00
2015,08,18,15,07,29.00
2015,08,18,15,08,29.10
2015,08,18,15,09,29.20
2015,08,18,15,10,29.30
2015,08,18,15,11,29.40
2015,08,18,15,12,29.40
2015,08,18,15,13,29.40
2015,08,18,15,14,29.40
2015,08,18,15,15,29.30
2015,08,18,15,16,29.20
2015,08,18,15,17,29.10
2015,08,18,15,18,29.00
2015,08,18,15,19,28.90
2015,08,18,15,20,28.90
2015,08,18,15,21,28.80
2015,08,18,15,22,28.80
2015,08,18,15,23,28.70
2015,08,18,15,24,28.70
2015,08,18,15,25,28.70
2015,08,18,15,26,28.80
2015,08,18,15,27,28.80
2015,08,18,15,28,28.70
2015,08,18,15,29,28.70
2015,08,18,15,30,28.70
2015,08,18,15,31,28.70
2015,08,18,15,32,28.60
2015,08,18,15,33,28.40
2015,08,18,15,34,28.30
2015,08,18,15,35,28.30
2015,08,18,15,36,28.30
2015,08,18,15,37,28.30
2015,08,18,15,38,28.40
2015,08,18,15,39,28.50
2015,08,18,15,40,28.60
2015,08,18,15,41,28.80
2015,08,18,15,42,28.80
2015,08,18,15,43,28.80
2015,08,18,15,44,28.80
2015,08,18,15,45,28.90
2015,08,18,15,46,28.90
2015,08,18,15,47,28.90
2015,08,18,15,48,28.80
2015,08,18,15,49,28.70
2015,08,18,15,50,28.60
2015,08,18,15,51,28.40
2015,08,18,15,52,28.20
2015,08,18,15,53,28.10
2015,08,18,15,54,28.10
2015,08,18,15,55,28.10
2015,08,18,15,56,28.20
2015,08,18,15,57,28.30
2015,08,18,15,58,28.40
2015,08,18,15,59,28.50
2015,08,18,16,00,28.60
2015,08,18,16,01,28.70
2015,08,18,16,02,28.90
2015,08,18,16,03,29.00
2015,08,18,16,04,29.20
2015,08,18,16,05,29.30
2015,08,18,16,06,29.40
2015,08,18,16,07,29.60
2015,08,18,16,08,29.70
2015,08,18,16,09,29.70
2015,08,18,16,10,29.80
2015,08,18,16,11,29.80
2015,08,18,16,12,29.80
2015,08,18,16,13,29.90
2015,08,18,16,14,29.90
2015,08,18,16,15,29.90
2015,08,18,16,16,29.80
2015,08,18,16,17,29.80
2015,08,18,16,18,29.80
2015,08,18,16,19,29.80
2015,08,18,16,20,29.80
2015,08,18,16,21,29.80
2015,08,18,16,22,29.80
2015,08,18,16,23,29.70
2015,08,18,16,24,29.60
2015,08,18,16,25,29.60
2015,08,18,16,26,29.60
2015,08,18,16,27,29.50
2015,08,18,16,28,29.50
2015,08,18,16,29,29.40
2015,08,18,16,30,29.30
2015,08,18,16,31,29.30
2015,08,18,16,32,29.30
2015,08,18,16,33,29.30
2015,08,18,16,34,29.30
2015,08,18,16,35,29.30
2015,08,18,16,36,29.30
2015,08,18,16,37,29.20
2015,08,18,16,38,29.10
2015,08,18,16,39,29.00
2015,08,18,16,40,28.90
2015,08,18,16,41,28.90
2015,08,18,16,42,28.80
2015,08,18,16,43,28.80
2015,08,18,16,44,28.70
2015,08,18,16,45,28.70
2015,08,18,16,46,28.70
2015,08,18,16,47,28.70
2015,08,18,16,48,28.70
2015,08,18,16,49,28.70
2015,08,18,16,50,28.70
2015,08,18,16,51,28.70
2015,08,18,16,52,28.70
2015,08,18,16,53,28.60
2015,08,18,16,54,28.50
2015,08,18,16,55,28.50
2015,08,18,16,56,28.50
2015,08,18,16,57,28.50
2015,08,18,16,58,28.50
2015,08,18,16,59,28.60
2015,08,18,17,00,28.60
2015,08,18,17,01,28.60
2015,08,18,17,02,28.60
2015,08,18,17,03,28.70
2015,08,18,17,04,28.70
2015,08,18,17,05,28.60
2015,08,18,17,06,28.60
2015,08,18,17,07,28.60
2015,08,18,17,08,28.60
2015,08,18,17,09,28.70
2015,08,18,17,10,28.70
2015,08,18,17,11,28.80
2015,08,18,17,12,28.80
2015,08,18,17,13,28.80
2015,08,18,17,14,28.80
2015,08,18,17,15,28.80
2015,08,18,17,16,28.80
2015,08,18,17,17,28.80
2015,08,18,17,18,28.80
2015,08,18,17,19,28.80